This demonstration page uses our WeatherBlox Daily Observations layout. Learn more.

Left ArrowRight Arrow

39.29038, -76.61219

Hourly Observations for March 25, 2018

Temp ( °F °C ) Dew Point ( °F °C ) Humidity (%) Winds ( mph kmh ) Pressure ( in mb ) Visibility ( mi km ) Precip ( " mm )
12:54 am 00:54 undefined 43 6.1 21 -6.1 42 42 undefined N/A 30.13 1020 N/A 0.00 0.00
1:54 am 01:54 undefined 40 4.4 25 -3.9 55 55 undefined N/A 30.13 1020 N/A 0.00 0.00
2:54 am 02:54 undefined 42 5.6 22 -5.6 45 45 undefined N/A 30.15 1021 N/A 0.00 0.00
3:54 am 03:54 undefined 39 3.9 19 -7.2 45 45 undefined N/A 30.17 1022 N/A 0.00 0.00
4:54 am 04:54 undefined 38 3.3 20 -6.7 48 48 undefined N/A 30.19 1022 N/A 0.00 0.00
5:54 am 05:54 undefined 36 2.2 17 -8.3 46 46 undefined N/A 30.21 1023 N/A 0.00 0.00
6:54 am 06:54 undefined 35 1.7 17 -8.3 48 48 undefined N/A 30.23 1024 N/A 0.00 0.00
7:54 am 07:54 undefined 33 0.6 16 -8.9 49 49 undefined N/A 30.26 1025 N/A 0.00 0.00
8:54 am 08:54 undefined 34 1.1 16 -8.9 48 48 undefined N/A 30.29 1026 N/A 0.00 0.00
9:54 am 09:54 undefined 35 1.7 17 -8.3 48 48 undefined N/A 30.33 1027 N/A 0.00 0.00
10:54 am 10:54 undefined 38 3.3 20 -6.7 48 48 undefined N/A 30.36 1028 N/A 0.00 0.00
11:54 am 11:54 undefined 40 4.4 25 -3.9 55 55 undefined N/A 30.38 1029 N/A 0.00 0.00
12:54 pm 12:54 undefined 41 5 28 -2.2 60 60 undefined N/A 30.40 1030 N/A 0.00 0.00
1:54 pm 13:54 undefined 39 3.9 29 -1.7 67 67 undefined N/A 30.41 1030 N/A 0.00 0.00
2:54 pm 14:54 undefined 44 6.7 31 -0.6 60 60 undefined N/A 30.41 1030 N/A 0.00 0.00
3:54 pm 15:54 undefined 45 7.2 30 -1.1 56 56 undefined N/A 30.41 1030 N/A 0.00 0.00
4:54 pm 16:54 undefined 46 7.8 31 -0.6 56 56 undefined N/A 30.42 1030 N/A 0.00 0.00
5:54 pm 17:54 undefined 44 6.7 31 -0.6 60 60 undefined N/A 30.45 1031 N/A 0.00 0.00
6:54 pm 18:54 undefined 45 7.2 31 -0.6 58 58 undefined N/A 30.46 1032 N/A 0.00 0.00
7:54 pm 19:54 undefined 44 6.7 30 -1.1 58 58 undefined N/A 30.48 1032 N/A 0.00 0.00
8:54 pm 20:54 undefined 43 6.1 32 0 65 65 undefined N/A 30.52 1033 N/A 0.00 0.00
9:54 pm 21:54 undefined 43 6.1 31 -0.6 63 63 undefined N/A 30.54 1034 N/A 0.00 0.00
10:54 pm 22:54 undefined 41 5 32 0 70 70 undefined N/A 30.55 1035 N/A 0.00 0.00
11:54 pm 23:54 undefined 40 4.4 31 -0.6 70 70 undefined N/A 30.57 1035 N/A 0.00 0.00

Powered by AerisWeather